QAC355F EDDH-EDDP

Flight info

Callsign QAC355F
Flight time N/A
Altitude 23000
Route AMLUH2G/33 AMLUH M852 DENIX Z113 SAS Z88 UPDAT/N0470F270 T236 ADMOS T959 KOJEC KOJEC1V
Aircraft B77L/H-SDE1E2E3FGHIJ2J3J4J5M1RWXY/LB1D1

Departure

Time 2026-04-25 20:12
Airport Hamburg Helmut Schmidt Airport (EDDH)

Arrival

Time N/A
Airport Leipzig/Halle Airport (EDDP)
Time Latitude Longitude Altitude Speed Heading
2026-04-25 19:35 53.63039 10.00060 42 ft 0 kts 280°
2026-04-25 19:54 53.63039 10.00056 41 ft 0 kts 276°
2026-04-25 19:54 53.63040 10.00032 41 ft 3 kts 271°
2026-04-25 19:54 53.63039 10.00016 41 ft 4 kts 263°
2026-04-25 19:55 53.62988 9.99974 40 ft 6 kts 159°
2026-04-25 19:55 53.62952 10.00001 41 ft 5 kts 155°
2026-04-25 19:55 53.62915 10.00030 42 ft 5 kts 158°
2026-04-25 19:55 53.62877 10.00033 42 ft 5 kts 206°
2026-04-25 19:56 53.62854 9.99989 41 ft 0 kts 237°
2026-04-25 19:56 53.62854 9.99988 41 ft 0 kts 237°
2026-04-25 20:10 53.62841 9.99955 40 ft 4 kts 237°
2026-04-25 20:10 53.62821 9.99891 39 ft 7 kts 245°
2026-04-25 20:10 53.62819 9.99809 38 ft 7 kts 301°
2026-04-25 20:11 53.62838 9.99777 38 ft 0 kts 326°
2026-04-25 20:11 53.62899 9.99718 36 ft 24 kts 332°
2026-04-25 20:11 53.63060 9.99577 36 ft 29 kts 332°
2026-04-25 20:11 53.63518 9.99183 41 ft 126 kts 332°
2026-04-25 20:12 53.64582 9.98300 231 ft 207 kts 336°
2026-04-25 20:12 53.65908 9.97365 1907 ft 221 kts 332°
2026-04-25 20:12 53.67098 9.96309 3718 ft 199 kts 334°
2026-04-25 20:12 53.67522 9.95965 4031 ft 198 kts 335°
2026-04-25 20:13 53.69643 9.94628 4903 ft 211 kts 353°
2026-04-25 20:13 53.71177 9.94638 4999 ft 229 kts 358°
2026-04-25 20:13 53.72774 9.94951 5009 ft 237 kts 15°
2026-04-25 20:13 53.74141 9.96591 5002 ft 256 kts 44°
2026-04-25 20:14 53.74891 9.99414 4986 ft 276 kts 74°
2026-04-25 20:14 53.74745 10.02719 4988 ft 292 kts 104°
2026-04-25 20:14 53.73766 10.05768 5116 ft 315 kts 121°
2026-04-25 20:14 53.72557 10.08856 6401 ft 313 kts 119°
2026-04-25 20:15 53.71444 10.11938 7619 ft 313 kts 117°
2026-04-25 20:15 53.70355 10.15116 8509 ft 324 kts 116°
2026-04-25 20:15 53.69133 10.18352 9428 ft 335 kts 130°
2026-04-25 20:15 53.67307 10.20767 10380 ft 340 kts 156°
2026-04-25 20:16 53.65058 10.22186 10993 ft 355 kts 168°
2026-04-25 20:16 53.62587 10.23309 11106 ft 388 kts 169°
2026-04-25 20:16 53.59908 10.24501 11115 ft 401 kts 169°
2026-04-25 20:16 53.57227 10.25711 11100 ft 402 kts 168°
2026-04-25 20:17 53.54549 10.26926 11005 ft 402 kts 169°
2026-04-25 20:17 53.51857 10.28150 10878 ft 400 kts 169°
2026-04-25 20:17 53.49155 10.29379 10757 ft 398 kts 169°